Weather Service Report


338 
ASUS46 KPQR 230710
RWROR 

OREGON REGIONAL WEATHER ROUNDUP
NATIONAL WEATHER SERVICE PORTLAND OR
1200 AM PDT WED APR 23 2014

NOTE: "FAIR" INDICATES FEW OR NO CLOUDS BELOW 12,000 FEET WITH
NO SIGNIFICANT WEATHER AND/OR OBSTRUCTIONS TO VISIBILITY.

ORZ001>013-230800-
NORTHWEST OREGON

  
CITY           SKY/WX    TMP DP  RH WIND       PRES   REMARKS
ASTORIA        CLOUDY    49  44  83 SW9       29.89R                  
NEWPORT        DRIZZLE   48  45  87 SW12G22   30.02R                  
PORTLAND       LGT RAIN  47  43  86 S16G23    29.96R                  
VANCOUVER WA   CLOUDY    47  43  86 VRB7G17   29.95S                  
SCAPPOOSE      LGT RAIN  47  44  90 S3        29.93S                  
HILLSBORO      CLOUDY    46  42  86 S12       29.94S                  
AURORA         LGT RAIN  46  44  93 S16       29.97S                  
MCMINNVILLE    LGT RAIN  47  44  90 S12       29.97S                  
SALEM          LGT RAIN  47  42  83 S15G22    29.98R                  
CORVALLIS      CLOUDY    46  43  87 S14       30.01S                  
EUGENE         CLOUDY    45  40  82 S10       30.03S                  
$$

ORZ021-028-230800-
SOUTHWEST OREGON

  
CITY           SKY/WX    TMP DP  RH WIND       PRES   REMARKS
NORTH BEND     CLOUDY    46  45  93 S5        30.08R                  
BROOKINGS      CLOUDY    46  44  93 VRB7      30.12S                  
ROSEBURG       LGT RAIN  47  40  76 S5        30.06S                  
SEXTON SUMMIT  CLOUDY    32  32 100 S13G21    30.01R FOG     WCI  22  
MEDFORD        CLOUDY    48  33  56 N3        30.07S                  
$$

ORZ009-041-230800-
COLUMBIA GORGE

  
CITY           SKY/WX    TMP DP  RH WIND       PRES   REMARKS
TROUTDALE      LGT RAIN  48  42  80 SW12G18   29.95R                  
THE DALLES     CLOUDY    44  39  82 S6        29.94S                  
$$

ORZ029>031-042>050-061>064-230800-
EASTERN OREGON

  
CITY           SKY/WX    TMP DP  RH WIND       PRES   REMARKS
REDMOND        MOCLDY    37  26  64 S6        29.94S WCI  32          
BEND           PTSUNNY   37  27  65 S10       29.96R WCI  30          
KLAMATH FALLS  PTCLDY    33  27  78 W7        30.03R WCI  27          
LAKEVIEW       MOCLDY    32  25  74 SW6       30.02R WCI  26          
HERMISTON      MOCLDY    41  35  79 S7        29.93S                  
PENDLETON      CLEAR     38  31  76 S7        29.92S WCI  33          
JOHN DAY       MOSUNNY   34  28  80 E7        29.95R WCI  28          
MEACHAM        CLEAR     29  26  89 CALM      29.90S                  
LA GRANDE      PTCLDY    36  25  64 CALM      29.91S                  
BAKER CITY     PTCLDY    26  21  81 SE6       29.92S WCI  19          
BURNS          PTCLDY    28  21  75 W5        29.96S WCI  23          
ROME             N/A     35  19  52 CALM      29.96R                  
ONTARIO        PTCLDY    39  26  59 NW5       29.95S                  
$$

Return to Home page


Western Regional Climate Center, wrcc@dri.edu